SL-16 DEB, 39908

Orbit data source: Space-Track

SL-16 DEB, 39908 is space debris in LEO originally from a launch on Fri, 26 Mar 1993 UTC launched from the Tyuratam Missile And Space Complex (TTMTR). Debris objects in space refer to the collection of defunct objects orbiting the Earth. Examples of debris include non-operational satellites, rocket bodies, and fragments generated from explosions, collisions, or faulty payload assembly.

Loading next visibility...
Identifier
39908, 1993-016CJ
Orbit
LEO
Country
Flag of CISCIS
Related business
Manufacturer
Unknown
Mission
Spacecraft
Bus & Motor
Unknown
Mass
Unknown
Launch date (UTC)
1993-03-26 (33 years ago)
Launch vehicle
Unknown
Launch site
Tyuratam Missile And Space Complex (TTMTR)
Object type
Payload
Rocket body
Debris
Shape & HBR
Unknown shape, 0.1 m
Radar Cross Section
Small (<0.1 m²)

Expand to show TLE details & history
Last TLE update: 4 days ago

TLE from 4 days ago
0 SL-16 DEB
1 39908U 93016CJ  26034.49017898  .00000685  00000-0  30177-3 0  9999
2 39908  71.0023  71.0715 0011705 233.3132 126.6922 14.26903459606357
Epoch: 2026-02-03T11:45Z
TLE epoch observation values (Epoch: 2026-02-03T11:45:51.463Z)
Latitude
-0.00005°
Longitude
120.93669°
Altitude
809.543 km
Speed
7.446 km/s
True Right ascension
04h 44m 17s
True Declination
0° 00' 00"
Sunlit
Object was in daylight at epoch
Visualization orbit readout
Latitude
Unknown
Longitude
Unknown
Altitude
Unknown
Speed
Unknown
Apparent Right ascension
Unknown
Apparent Declination
Unknown
Sunlit
N/A
Visualization observer readout
Local Sidereal Time
08:01:36
Azimuth
Unknown
Elevation
Unknown
Doppler factor
Unknown
Orbital elements
Apogee altitude
808.415 km
Perigee altitude
791.611 km
Semi-major axis
7,178.15 km
Eccentricity
0.00117
Inclination
71.0023°
RAAN
71.0715°
Arg. of periapsis
233.3132°
True anomaly
126.79966°
Mean anomaly
126.6922°
Eccentric anomaly
126.74594°
Mean motion
3.56882 °/min
Orbital period
100.87 mins
BSTAR
0.00030177
Loading maneuver chart data...
Computing Atmospheric mass density...
Loading historical data...
Loading historical data...
Loading historical data...
Loading historical data...
Loading historical data...
Loading historical data...
Loading historical data...

Documentation

Showing up to 5 results
|